User: anonymous   Login
Location: Unspecified
(0.0000°N, 0.0000°E)
Time: 05:53:51
(UTC+00:00)
Language:

Himawari 2 - Orbit

View from above orbital plane
View from above orbital plane
View from above satellite
View from above satellite

Ground track
Ground track

The orbit data is extracted from the following two-line orbital elements,

1 12677U 81076A   19083.07202039 -.00000295  00000-0  00000+0 0  9995
2 12677  13.2272 328.6251 0008929 284.4859 280.3181  0.99555914105913
Epoch (UTC): 24 March 2019 01:43:42
Eccentricity: 0.0008929
inclination: 13.2272°
perigee height: 35950 km
apogee height: 36026 km
right ascension of ascending node: 328.6251°
argument of perigee: 284.4859°
revolutions per day: 0.99555914
mean anomaly at epoch: 280.3181°
orbit number at epoch: 10591

The dashed part of the orbit path shows where the satellite is in the earth's shadow,  

DLR